K5BV Weather Reports


Display with metric or nautical units.
time (UTC)temp
F
wind
direction
speed
MPH
gust
MPH
rain 1hr
in
rain 24hr
in
rain mn
in
humidity
%
barometer
mb
20260505001237 76 0 0.0 0.0 0.00 0.00 0.00 86 1011.5
20260505000237 76 0 0.0 0.0 0.00 0.00 0.00 86 1011.7
20260504235238 76 0 0.0 0.0 0.00 0.00 0.00 85 1011.8
20260504234237 76 0 0.0 0.0 0.00 0.00 0.00 84 1011.7
20260504233236 76 0 0.0 0.0 0.00 0.00 0.00 83 1011.7
20260504232237 76 0 0.0 0.0 0.00 0.00 0.00 83 1011.7
20260504231236 76 0 0.0 0.0 0.00 0.00 0.00 82 1011.8
20260504230238 77 0 0.0 0.0 0.00 0.00 0.00 82 1011.8
20260504225349 77 0 0.0 0.0 0.00 0.00 0.00 80 1012.0
20260504224341 77 0 0.0 0.0 0.00 0.00 0.00 81 1012.2
20260504223238 77 0 0.0 0.0 0.00 0.00 0.00 80 1012.3
20260504222236 77 0 0.0 0.0 0.00 0.00 0.00 81 1012.4
20260504221238 77 0 0.0 0.0 0.00 0.00 0.00 80 1012.4
20260504215237 78 0 0.0 0.0 0.00 0.00 0.00 79 1012.7
20260504214237 78 0 0.0 0.0 0.00 0.00 0.00 78 1012.6
20260504213238 78 0 0.0 0.0 0.00 0.00 0.00 78 1012.9
20260504212238 77 0 0.0 0.0 0.00 0.00 0.00 78 1013.0
20260504211238 78 0 0.0 0.0 0.00 0.00 0.00 80 1013.2
20260504210237 78 0 0.0 0.0 0.00 0.00 0.00 78 1013.2
20260504205237 78 0 0.0 0.0 0.00 0.00 0.00 78 1013.1
20260504204237 78 0 0.0 0.0 0.00 0.00 0.00 78 1013.4
20260504203237 78 0 0.0 0.0 0.00 0.00 0.00 79 1013.4
20260504202238 78 0 0.0 0.0 0.00 0.00 0.00 77 1013.5
20260504201238 78 0 0.0 0.0 0.00 0.00 0.00 78 1013.7
20260504200238 78 0 0.0 0.0 0.00 0.00 0.00 78 1013.7
20260504195238 78 0 0.0 0.0 0.00 0.00 0.00 78 1014.0
20260504194238 78 0 0.0 0.0 0.00 0.00 0.00 78 1014.0
20260504193238 78 0 0.0 0.0 0.00 0.00 0.00 79 1014.3
20260504192238 77 0 0.0 0.0 0.00 0.00 0.00 78 1014.2
20260504191238 78 0 0.0 0.0 0.00 0.00 0.00 79 1014.1
20260504190238 77 0 0.0 0.0 0.00 0.00 0.00 79 1014.3
20260504185237 77 0 0.0 0.0 0.00 0.00 0.00 80 1014.4
20260504184238 77 0 0.0 0.0 0.00 0.00 0.00 79 1014.8
20260504183237 77 0 0.0 0.0 0.00 0.00 0.00 80 1014.9
20260504182237 77 0 0.0 0.0 0.00 0.00 0.00 81 1014.7
20260504181237 77 0 0.0 0.0 0.00 0.00 0.00 80 1014.7
20260504180237 76 0 0.0 0.0 0.00 0.00 0.00 80 1014.9
20260504175238 76 0 0.0 0.0 0.00 0.00 0.00 81 1015.2
20260504174238 76 0 0.0 0.0 0.00 0.00 0.00 81 1015.3
20260504173239 76 0 0.0 0.0 0.00 0.00 0.00 81 1015.2
20260504171238 75 0 0.0 0.0 0.00 0.00 0.00 82 1015.4
20260504170248 75 0 0.0 0.0 0.00 0.00 0.00 82 1015.7
20260504160237 75 0 0.0 0.0 0.00 0.00 0.00 82 1015.8
20260504150237 75 0 0.0 0.0 0.00 0.00 0.00 83 1016.1
20260504141239 74 0 0.0 0.0 0.00 0.00 0.00 84 1015.6
20260504140238 74 0 0.0 0.0 0.00 0.00 0.00 84 1015.7
20260504130240 73 0 0.0 0.0 0.00 0.00 0.00 86 1016.0
20260504120240 72 0 0.0 0.0 0.00 0.00 0.00 86 1015.9
20260504110238 71 0 0.0 0.0 0.00 0.00 0.00 85 1015.8
20260504100238 72 0 0.0 0.0 0.00 0.00 0.00 82 1016.4
20260504081238 71 0 0.0 0.0 0.00 0.00 0.00 79 1016.7
20260504080238 71 0 0.0 0.0 0.00 0.00 0.00 77 1016.7
20260504070238 72 0 0.0 0.0 0.00 0.00 0.00 76 1017.7
20260504060238 71 0 0.0 0.0 0.00 0.00 0.00 76 1018.2
20260504050242 72 0 0.0 0.0 0.00 0.00 0.00 76 1019.3
20260504045237 72 0 0.0 0.0 0.00 0.00 0.00 75 1019.5
20260504044238 72 0 0.0 0.0 0.00 0.00 0.00 74 1019.6
20260504043238 72 0 0.0 0.0 0.00 0.00 0.00 74 1019.5
20260504042238 72 0 0.0 0.0 0.00 0.00 0.00 74 1019.6
20260504041239 72 0 0.0 0.0 0.00 0.00 0.00 74 1019.6
20260504040237 72 0 0.0 0.0 0.00 0.00 0.00 71 1019.5
20260504035239 72 0 0.0 0.0 0.00 0.00 0.00 70 1019.5
20260504034237 72 0 0.0 0.0 0.00 0.00 0.00 72 1019.4
20260504033237 72 0 0.0 0.0 0.00 0.00 0.00 71 1019.4
20260504032237 72 0 0.0 0.0 0.00 0.00 0.00 71 1019.4
20260504031238 72 0 0.0 0.0 0.00 0.00 0.00 71 1019.3
20260504030238 72 0 0.0 0.0 0.00 0.00 0.00 70 1019.3
20260504025238 72 0 0.0 0.0 0.00 0.00 0.00 71 1019.5
20260504024237 72 0 0.0 0.0 0.00 0.00 0.00 70 1019.4
20260504023238 72 0 0.0 0.0 0.00 0.00 0.00 70 1019.4
20260504022238 73 0 0.0 0.0 0.00 0.00 0.00 70 1019.2
20260504021238 73 0 0.0 0.0 0.00 0.00 0.00 69 1019.0
20260504020237 73 0 0.0 0.0 0.00 0.00 0.00 70 1018.9
20260504015239 72 0 0.0 0.0 0.00 0.00 0.00 68 1018.9
20260504014244 73 0 0.0 0.0 0.00 0.00 0.00 70 1018.8
20260504012239 73 0 0.0 0.0 0.00 0.00 0.00 69 1018.8
20260504011239 73 0 0.0 0.0 0.00 0.00 0.00 68 1018.7
20260504010239 74 0 0.0 0.0 0.00 0.00 0.00 66 1018.8
20260504005239 75 0 0.0 0.0 0.00 0.00 0.00 66 1018.8
20260504004239 75 0 0.0 0.0 0.00 0.00 0.00 63 1018.8
20260504003239 76 0 0.0 0.0 0.00 0.00 0.00 62 1019.0
20260504002239 76 0 0.0 0.0 0.00 0.00 0.00 62 1019.0